DW7346 Weather Reports


Display with metric or nautical units.
time (UTC)temp
F
wind
direction
speed
MPH
gust
MPH
rain 1hr
in
rain 24hr
in
rain mn
in
humidity
%
barometer
mb
20260507194539 74 27 3.0 6.0 0.00 0.00 0.00 51 1014.6
20260507193034 74 84 1.0 5.0 0.00 0.00 0.00 55 1014.9
20260507191531 73 55 2.0 7.0 0.00 0.00 0.00 56 1015.1
20260507190027 72 335 3.0 5.0 0.00 0.00 0.00 57 1015.4
20260507184526 71 338 3.0 7.0 0.00 0.00 0.00 57 1015.5
20260507183024 71 293 1.0 8.0 0.00 0.00 0.00 58 1015.6
20260507181522 70 56 1.0 6.0 0.00 0.00 0.00 61 1015.7
20260507180017 69 37 3.0 6.0 0.00 0.00 0.00 60 1016.2
20260507174538 69 345 4.0 11.0 0.00 0.00 0.00 60 1016.3
20260507173017 68 18 1.0 4.0 0.00 0.00 0.00 64 1016.9
20260507171512 68 9 4.0 7.0 0.00 0.00 0.00 62 1017.3
20260507170011 67 1 2.0 5.0 0.00 0.00 0.00 63 1017.7
20260507164509 67 316 1.0 4.0 0.00 0.01 0.00 66 1017.8
20260507163006 65 277 2.0 4.0 0.00 0.01 0.00 67 1017.9
20260507161505 65 6 2.0 7.0 0.00 0.01 0.00 69 1017.9
20260507160003 64 15 1.0 7.0 0.00 0.02 0.00 70 1017.9
20260507154600 64 6 0.0 7.0 0.00 0.02 0.00 70 1018.1
20260507153058 63 12 3.0 6.0 0.00 0.02 0.00 68 1018.1
20260507151559 62 345 2.0 7.0 0.00 0.02 0.00 73 1018.2
20260507150051 61 1 1.0 5.0 0.00 0.02 0.00 77 1018.5
20260507144551 60 334 0.0 6.0 0.00 0.02 0.00 80 1018.5
20260507143049 60 327 0.0 4.0 0.00 0.02 0.00 82 1018.5
20260507141543 59 351 1.0 4.0 0.00 0.02 0.00 84 1018.6
20260507140046 57 2 1.0 4.0 0.00 0.02 0.00 85 1018.8
20260507134541 55 23 0.0 3.0 0.00 0.02 0.00 88 1018.8
20260507133042 54 53 0.0 0.0 0.00 0.02 0.00 88 1019.1
20260507131606 53 53 0.0 0.0 0.00 0.02 0.00 90 1018.9
20260507130037 53 56 0.0 2.0 0.00 0.02 0.00 90 1018.8
20260507124540 52 246 0.0 1.0 0.00 0.02 0.00 91 1018.6
20260507123042 52 245 0.0 2.0 0.00 0.02 0.00 92 1018.5
20260507121532 51 262 0.0 0.0 0.00 0.02 0.00 92 1018.5
20260507120033 51 259 0.0 0.0 0.00 0.02 0.00 92 1018.1
20260507114528 52 6 0.0 0.0 0.00 0.02 0.00 92 1017.9
20260507113057 52 6 0.0 0.0 0.00 0.02 0.00 92 1017.8
20260507111526 52 8 0.0 2.0 0.00 0.02 0.00 91 1017.8
20260507110023 52 16 0.0 0.0 0.00 0.02 0.00 91 1017.9
20260507104521 53 16 0.0 0.0 0.00 0.02 0.00 91 1017.6
20260507103018 53 16 0.0 0.0 0.00 0.02 0.00 90 1017.4
20260507101521 53 16 0.0 0.0 0.00 0.02 0.00 89 1016.9
20260507100027 54 16 0.0 1.0 0.00 0.02 0.00 89 1016.7
20260507094509 54 16 1.0 4.0 0.00 0.02 0.00 89 1016.3
20260507093008 54 11 0.0 3.0 0.00 0.02 0.00 90 1016.3
20260507091506 54 11 1.0 4.0 0.00 0.02 0.00 89 1016.1
20260507090007 54 11 0.0 2.0 0.00 0.02 0.00 89 1016.2
20260507084507 55 11 0.0 0.0 0.00 0.02 0.00 88 1016.2
20260507083005 55 11 0.0 2.0 0.00 0.02 0.00 87 1016.2
20260507081600 55 11 0.0 3.0 0.00 0.02 0.00 87 1016.3
20260507080056 56 11 0.0 3.0 0.00 0.02 0.00 86 1016.1
20260507074555 56 8 2.0 4.0 0.00 0.02 0.00 86 1015.9
20260507073057 56 9 2.0 5.0 0.00 0.02 0.00 85 1015.8
20260507071551 56 4 1.0 6.0 0.00 0.02 0.00 84 1015.6
20260507064550 57 2 2.0 5.0 0.00 0.02 0.00 83 1015.7
20260507063053 57 9 1.0 6.0 0.00 0.02 0.00 82 1015.7
20260507061545 57 27 1.0 4.0 0.00 0.02 0.00 82 1015.4
20260507060045 57 51 0.0 3.0 0.00 0.02 0.00 82 1015.4
20260507054544 58 49 1.0 4.0 0.00 0.02 0.00 81 1015.3
20260507053040 58 41 1.0 6.0 0.00 0.02 0.00 81 1015.2
20260507051539 58 25 2.0 6.0 0.00 0.02 0.00 81 1015.2
20260507050059 58 18 0.0 3.0 0.00 0.02 0.00 80 1015.2
20260507044546 58 7 1.0 5.0 0.00 0.02 0.02 79 1015.4
20260507043036 58 6 2.0 8.0 0.00 0.02 0.02 78 1015.4
20260507041535 59 11 1.0 6.0 0.00 0.02 0.02 77 1015.5
20260507040034 59 22 2.0 8.0 0.00 0.02 0.02 77 1015.5
20260507034539 59 38 1.0 10.0 0.00 0.02 0.02 77 1015.6
20260507033039 60 360 5.0 11.0 0.00 0.02 0.02 76 1015.7
20260507031534 60 4 2.0 8.0 0.00 0.02 0.02 77 1015.6
20260507030035 60 12 2.0 9.0 0.00 0.02 0.02 77 1015.4
20260507024535 60 360 3.0 8.0 0.00 0.02 0.02 77 1015.1
20260507023025 60 1 3.0 12.0 0.00 0.02 0.02 76 1014.8
20260507021543 61 34 3.0 11.0 0.00 0.02 0.02 76 1014.4
20260507020025 62 6 4.0 10.0 0.00 0.02 0.02 76 1014.2
20260507014524 62 9 3.0 11.0 0.00 0.02 0.02 77 1013.8
20260507013021 62 1 2.0 6.0 0.00 0.02 0.02 77 1013.4
20260507011528 62 3 2.0 10.0 0.00 0.02 0.02 76 1013.0
20260507010029 62 5 4.0 11.0 0.00 0.02 0.02 76 1012.9
20260507004521 62 359 2.0 8.0 0.00 0.02 0.02 76 1012.7
20260507003019 63 13 4.0 7.0 0.00 0.02 0.02 75 1012.7
20260507001517 63 1 2.0 10.0 0.00 0.02 0.02 75 1012.5
20260507000017 63 51 2.0 10.0 0.00 0.02 0.02 75 1012.2
20260506234517 63 20 5.0 9.0 0.00 0.02 0.02 75 1012.1
20260506233017 64 330 3.0 10.0 0.00 0.02 0.02 75 1012.0
20260506231522 64 4 2.0 12.0 0.00 0.02 0.02 75 1011.8
20260506230015 64 2 2.0 7.0 0.00 0.02 0.02 75 1011.8
20260506224515 64 1 1.0 8.0 0.00 0.02 0.02 76 1011.5
20260506223017 65 16 3.0 8.0 0.00 0.02 0.02 75 1011.7
20260506221513 65 1 3.0 8.0 0.00 0.02 0.02 75 1011.4
20260506220022 65 353 3.0 9.0 0.00 0.02 0.02 75 1011.6
20260506214511 64 354 3.0 8.0 0.00 0.02 0.02 76 1011.4
20260506213007 62 12 2.0 8.0 0.00 0.02 0.02 78 1011.6
20260506211505 62 295 1.0 6.0 0.00 0.02 0.02 77 1011.9
20260506210006 62 6 2.0 7.0 0.00 0.02 0.02 76 1011.8
20260506204505 62 340 0.0 7.0 0.00 0.02 0.02 77 1011.7
20260506203011 62 1 0.0 5.0 0.00 0.02 0.02 77 1011.9
20260506201502 61 316 1.0 6.0 0.00 0.02 0.02 78 1012.1
20260506200001 61 360 2.0 7.0 0.00 0.02 0.02 78 1012.7